Location: Newark
(52.3500°N, 175.9667°E)
Time: 01:59:03
(UTC+00:00)

N. Korean satellite - Pass Details

Date: 07 March 2021
Orbit: 453 x 499 km, 97.2° (Epoch: 11 April)

Event Time Altitude Azimuth Distance (km) Brightness Sun altitude
Rises 17:42:26 0° 15° (NNE) 2,534 10.5 -10.7°
Reaches altitude 10° 17:44:30 10° 18° (NNE) 1,659 9.6 -10.4°
Maximum altitude 17:48:03 67° 102° (ESE) 530 7.0 -9.9°
Drops below altitude 10° 17:51:38 10° 185° (S) 1,671 9.2 -9.3°
Sets 17:53:43 0° 188° (S) 2,554 10.1 -9.0°
